EW8749 Weather Reports


time (UTC)temp
F
wind
direction
speed
knots
gust
knots
rain 1hr
in
rain 24hr
in
rain mn
in
humidity
%
barometer
mb
20260505060051 58 315 1.7 9.6 0.00 0.02 0.01 68 1019.7
20260505054550 58 306 1.7 7.8 0.00 0.10 0.01 67 1019.6
20260505053049 58 253 3.5 7.8 0.00 0.10 0.01 67 1019.6
20260505051547 58 353 2.6 8.7 0.00 0.10 0.01 66 1019.5
20260505050122 58 299 1.7 9.6 0.00 0.10 0.01 66 1019.4
20260505041555 58 267 4.3 10.4 0.00 0.10 0.01 67 1019.1
20260505040054 58 334 0.9 9.6 0.00 0.10 0.01 67 1019.2
20260505034542 58 306 2.6 12.2 0.00 0.11 0.01 66 1019.2
20260505033045 58 244 4.3 12.2 0.00 0.11 0.01 68 1019.4
20260505031544 58 274 5.2 9.6 0.00 0.11 0.01 67 1019.5
20260505030040 58 251 5.2 13.9 0.00 0.11 0.01 67 1019.5
20260505024534 58 353 3.5 13.0 0.00 0.11 0.01 68 1019.5
20260505023039 57 237 6.1 12.2 0.00 0.11 0.01 67 1019.8
20260505021534 57 284 2.6 9.6 0.00 0.11 0.01 68 1020.1
20260505020035 57 243 3.5 7.0 0.00 0.11 0.01 69 1020.5
20260505014527 57 172 3.5 10.4 0.00 0.20 0.01 70 1020.5
20260505013026 56 241 3.5 9.6 0.00 0.20 0.01 69 1020.6
20260505011529 56 302 4.3 10.4 0.00 0.20 0.01 70 1020.6
20260505010023 56 331 3.5 9.6 0.00 0.20 0.01 70 1020.6
20260505004531 55 261 2.6 9.6 0.00 0.23 0.01 73 1020.7
20260505003114 54 305 3.5 10.4 0.00 0.23 0.01 75 1020.6
20260505001510 54 262 2.6 9.6 0.00 0.23 0.01 78 1020.4
20260505000010 54 347 4.3 8.7 0.00 0.23 0.01 78 1020.4
20260504234504 53 275 4.3 11.3 0.00 0.23 0.01 77 1020.1
20260504233002 53 326 4.3 8.7 0.00 0.23 0.01 80 1020.1
20260504231558 52 226 3.5 9.6 0.00 0.23 0.01 81 1019.9
20260504230156 52 265 1.7 9.6 0.00 0.23 0.01 82 1020.0
20260504224608 51 216 2.6 7.0 0.00 0.37 0.01 83 1020.2
20260504223050 51 264 0.0 4.3 0.00 0.37 0.01 85 1020.3
20260504221543 50 257 2.6 5.2 0.00 0.37 0.01 85 1020.2
20260504220040 50 259 0.9 5.2 0.00 0.37 0.01 86 1019.9